Location: Wildlife_Club
(35.6000°N, 81.4330°W)
Time: 22:28:59
(UTC-04:00)

Daily predictions for brighter satellites

Satellite Brightness Start Highest point End
(mag) Time Altitude Azimuth Time Altitude Azimuth Time Altitude Azimuth
H-2A R/B 4.0 19:27:10 10° WSW 19:31:50 53° S 20:02:54 10° ESE
USA 229 DEB 4.0 20:27:54 10° S 20:34:18 46° ESE 20:40:49 10° NE
USA 229 4.0 20:28:01 10° S 20:34:25 45° ESE 20:40:55 10° NE
Cosmos 1655 Rocket 4.5 20:29:27 10° N 20:35:29 43° ENE 20:41:27 10° SSE
Cosmos 1862 4.1 20:33:23 10° NNE 20:37:04 33° ENE 20:40:43 10° SE
Cosmos 2279 Rocket 4.2 20:31:10 10° SSE 20:37:08 50° E 20:43:05 10° NNE
ATLAS CENTAUR R/B 3.9 20:36:15 10° WNW 20:38:59 27° SW 20:44:40 10° SSE
Cosmos 2322 Rocket 3.0 20:33:35 10° SW 20:39:05 59° WNW 20:44:39 10° NNE
Cosmos 1408 2.6 20:37:14 10° N 20:40:50 57° E 20:44:24 10° SSE
Cosmos 1627 Rocket 4.5 20:38:27 10° N 20:44:38 73° E 20:50:43 10° SSE
HJ-1C 3.8 20:41:17 10° S 20:44:42 69° W 20:48:09 10° NNW
Cosmos 1825 2.2 20:41:33 10° N 20:45:20 65° E 20:49:07 10° SSE
Cosmos 2360 Rocket 2.3 20:39:54 10° S 20:45:24 57° ESE 20:50:57 10° NNE
FALCON 9 R/B 0.3 20:42:08 10° W 20:45:25 71° S 20:47:33 10° E
H-2A R/B 3.0 20:48:58 10° S 20:52:51 76° W 20:56:42 10° NNW
ATLAS 5 CENTAUR R/B 2.8 20:47:55 10° NNW 20:53:52 53° NE 21:00:03 11° SE
Cosmos 1992 Rocket 4.5 20:49:03 10° SSW 20:54:14 67° WNW 20:59:28 10° NNE
COSMOS 2428 3.5 20:50:06 10° SSE 20:54:53 29° ESE 20:59:41 10° NE
Resurs 01 Rocket 1.7 20:54:00 10° SSE 20:58:27 85° W 21:02:55 10° NNW
Helios 1A 3.5 20:58:30 10° SE 21:02:29 41° ENE 21:06:28 10° N
USA 267 3.8 20:56:07 10° NE 21:02:34 65° NW 21:09:01 10° WSW
Cosmos 1939 Rocket 4.0 21:00:53 14° ESE 21:03:36 27° ENE 21:06:57 10° NNE
Atlas Centaur 2 2.8 21:00:48 10° WSW 21:06:38 56° S 21:12:50 15° ESE
CZ-4B DEB 3.8 21:06:08 18° ESE 21:07:36 26° ENE 21:10:11 10° NNE
Cosmos 2322 3.7 21:02:19 10° SSW 21:08:00 77° ESE 21:13:43 10° NNE
Okean 1-7 4.3 21:08:36 16° SE 21:10:46 23° E 21:14:11 10° NE
SL-16 R/B 4.2 21:06:24 10° SW 21:11:25 32° WNW 21:16:29 10° N
YAOGAN 6 4.3 21:11:36 16° E 21:12:37 18° ENE 21:15:07 10° NNE
Cosmos 1733 Rocket 3.1 21:09:03 10° N 21:13:32 83° W 21:17:58 10° S
Sich 1 Rocket 4.1 21:10:18 10° N 21:14:33 40° E 21:17:37 17° SE
OAO 3 Rocket 3.6 21:16:34 10° W 21:21:15 50° SSW 21:24:13 22° SE
Cosmos 1862 Rocket 4.3 21:18:00 10° SSW 21:22:22 57° W 21:26:48 10° N
Meteor 2-10 Rocket 3.7 21:18:56 10° S 21:24:45 83° E 21:30:32 10° N
CZ-2D R/B 4.4 21:21:58 10° S 21:25:40 43° W 21:29:24 10° NNW
Cosmos 2237 Rocket 3.8 21:26:55 15° E 21:26:55 15° E 21:29:14 10° ENE
Spot 2 Rocket 4.4 21:21:51 10° S 21:26:45 49° W 21:31:41 10° NNW
Cosmos 968 Rocket 3.5 21:21:32 10° NNW 21:26:45 70° ENE 21:30:31 19° SSE
CZ-4C R/B 4.5 21:22:09 10° N 21:27:03 19° NE 21:31:55 11° E
Cosmos 1844 Rocket 3.8 21:22:42 10° N 21:27:23 27° ENE 21:29:47 20° E
Cosmos 2333 4.3 21:24:53 10° S 21:30:24 53° ESE 21:35:59 10° NNE
Cosmos 2278 Rocket 4.2 21:31:04 10° NNE 21:33:36 13° NE 21:35:33 11° ENE
Cosmos 2333 Rocket 3.1 21:32:00 23° SE 21:33:51 28° ESE 21:38:37 10° NE
Okean 2 Rocket 4.1 21:30:39 10° NNE 21:34:30 27° ENE 21:35:20 25° E
USA 234 4.3 21:30:18 15° E 21:34:56 35° NNE 21:40:43 10° NNW
Lacrosse 4 Rocket 4.2 21:34:34 10° WNW 21:37:15 16° WSW 21:39:57 10° SW
Helios 1B rocket 3.0 21:35:23 10° N 21:39:25 59° WNW 21:43:27 10° SSW
Cosmos 1703 Rocket 3.5 21:39:00 10° S 21:43:26 87° E 21:47:52 10° N
Envisat 3.1 21:42:56 16° S 21:47:03 74° WSW 21:52:09 10° NNW
Cosmos 2219 Rocket 2.4 21:42:14 12° S 21:47:10 46° ESE 21:52:30 10° NE
SAR-Lupe-4 4.4 21:47:47 20° SSW 21:49:59 48° W 21:53:28 10° NNW
USA 186 4.2 21:48:54 10° SW 21:51:00 18° W 21:53:10 10° NW
Meteor 1-29 4.1 21:48:35 10° N 21:51:53 43° WNW 21:55:08 10° SSW
SPOT 5 3.7 21:57:52 30° ENE 21:58:09 30° ENE 22:02:08 10° N
Gbstr 26 Del rocket 4.4 21:51:33 10° SSW 21:58:45 60° SE 22:06:43 10° NE
SeaSat 1 4.2 21:58:47 16° ENE 21:59:40 17° NE 22:02:46 10° NNE
SEDSat Delta rocket 4.1 21:55:43 10° W 22:00:24 40° SSW 22:01:32 36° SSE
NOSS 0 Rocket 4.1 22:00:22 34° SSE 22:02:22 45° ESE 22:08:10 10° NE
ERS-1 Rocket 2.9 22:01:59 43° SE 22:03:36 72° ENE 22:08:36 10° N
H-2A R/B 3.4 22:06:42 22° ENE 22:06:42 22° ENE 22:10:19 10° NNE
Cosmos 1867 4.4 22:03:09 10° NW 22:08:18 44° WSW 22:10:59 25° S
Sakura Rocket 4.2 22:05:21 10° WSW 22:07:34 25° SSW 22:07:34 25° SSW
Milstar 3 3.8 22:03:08 10° W 22:09:53 30° SSW 22:11:48 26° S
Cosmos 2263 Rocket 4.1 22:06:09 10° NW 22:10:30 24° WSW 22:14:49 10° SSW
Cosmos 2266 Rocket 4.2 22:05:56 10° N 22:12:15 73° W 22:16:21 24° S
Cosmos 1570 Rocket 3.9 22:11:35 40° S 22:13:25 70° ESE 22:18:40 10° NNE
Cosmos 2221 Rocket 4.3 22:14:06 18° SSW 22:17:08 50° W 22:21:28 10° N
NOSS 3-1 (C) 3.4 22:11:32 10° SW 22:17:12 79° WNW 22:23:30 10° NNE
MetOp-B 4.1 22:17:11 54° SE 22:18:11 67° ENE 22:23:30 10° N
Cosmos 1782 2.7 22:18:24 82° NNE 22:18:24 82° NNE 22:22:16 10° N
YAOGAN 11 4.1 22:20:58 63° ENE 22:20:58 63° ENE 22:25:03 10° N
H-2A R/B 4.2 22:27:25 16° NE 22:27:25 16° NE 22:29:03 10° NNE
Cosmos 2208 Rocket 3.9 22:25:08 48° S 22:26:42 84° ESE 22:32:02 10° NNE
Terra 3.7 22:32:31 19° NE 22:32:31 19° NE 22:34:52 10° NNE
Meteor 1-27 Rocket 3.8 22:33:10 55° ENE 22:33:10 55° ENE 22:38:15 10° NNE
NOSS 3-1 (A) 3.3 22:29:21 10° SW 22:35:01 80° WNW 22:41:21 10° NNE
ATLAS 2AS CENTAUR R/B 4.4 22:39:31 20° ENE 22:39:31 20° ENE 22:42:32 10° NE
ATLAS 5 CENTAUR R/B 4.1 22:33:21 10° WNW 22:38:22 26° WSW 22:41:38 17° SSW
COSMOS 2428 4.3 22:33:50 10° SW 22:38:58 34° WNW 22:44:09 10° N
ARGOS 3.0 22:41:16 81° SE 22:41:29 84° ENE 22:46:53 10° NNW
Cosmos 1244 Rocket 4.4 22:35:53 10° N 22:42:11 88° E 22:43:18 63° S
NOAA 11 4.3 22:41:22 59° SSW 22:42:16 70° WSW 22:47:45 10° NNW
Cosmos 1980 3.5 22:42:14 72° SSW 22:42:52 88° ESE 22:48:32 10° NNE
Cosmos 1553 Rocket 3.8 22:46:05 70° ESE 22:46:26 73° E 22:52:37 10° N
Cosmos 1606 4.1 22:48:19 36° NW 22:48:19 36° NW 22:51:02 10° N
SL-08 R/B 4.5 22:41:28 10° N 22:47:23 60° ENE 22:47:23 60° ENE
Cosmos 1844 3.6 22:44:00 10° NNW 22:49:39 79° WSW 22:49:48 78° SW
SL-16 R/B 3.9 22:53:21 20° NE 22:53:21 20° NE 22:55:15 10° NE
SPOT 1/Viking Rocket 3.6 22:55:00 71° N 22:55:00 71° N 22:59:41 10° N
Atlas Centaur 2 3.2 22:49:23 10° W 22:55:28 46° SSW 22:55:28 46° SSW
MOS 1-B Rocket 4.0 23:02:57 64° WSW 23:03:17 66° WSW 23:08:52 10° NNW
Meteor 1-11 Rocket 3.8 22:59:12 10° N 23:04:01 68° N 23:04:01 68° N
Cosmos 2237 Rocket 2.6 23:08:38 54° W 23:09:24 60° WNW 23:15:02 10° NNE
Cosmos 1844 Rocket 3.7 23:06:14 10° NW 23:11:17 36° WSW 23:11:29 36° WSW
Meteor 2-11 Rocket 4.4 23:12:02 75° N 23:12:02 75° N 23:17:35 10° N
CZ-4C R/B 2.8 23:09:16 10° NNW 23:16:38 80° ENE 23:17:07 76° E
USA 234 3.3 23:17:38 68° SW 23:17:38 68° SW 23:24:07 10° NW
Cosmos 2333 Rocket 3.6 23:13:47 16° WSW 23:17:53 36° WNW 23:23:12 10° N
Cosmos 2278 Rocket 2.5 23:12:43 10° NNW 23:17:25 62° NNW 23:17:25 62° NNW
S3M 4.1 23:18:41 64° W 23:18:56 64° W 23:25:07 10° N
Cosmos 2219 Rocket 4.3 23:27:02 10° WSW 23:31:18 22° WNW 23:35:38 10° N
SeaSat 1 3.8 23:38:34 36° NW 23:38:34 36° NW 23:41:36 10° NNW
H-2A R/B 3.6 23:47:20 28° WNW 23:47:20 28° WNW 23:50:16 10° NNW
